Orbital Elements at Epoch 2459200.5 (2020-Dec-17.0) TDB
Reference: JPL 30 (heliocentric ecliptic J2000)
Element | Value | Uncertainty (1-sigma) | Units |
e | .1489733815648414 | 3.0851e-08 | |
a | 2.152549217932635 | 7.1259e-09 | au |
q | 1.831876681952456 | 6.8482e-08 | au |
i | 2.355130045715224 | 3.0088e-06 | deg |
node | 30.07068999178581 | 9.5265e-05 | deg |
peri | 343.7145175699767 | 9.6257e-05 | deg |
M | 315.20158884793 | 1.6155e-05 | deg |
tp | 2459344.045034154266 (2021-May-09.54503415) | 5.2222e-05 | TDB |
period | 1153.527791870089 3.16 | 5.728e-06 1.568e-08 | d yr |
n | .3120861088369369 | 1.5497e-09 | deg/d |
Q | 2.473221753912814 | 8.1875e-09 | au |
|
| | Orbit Determination Parameters
Additional Information
|